Location: Brunsbüttel
(52.3892°N, 10.6138°E)
Time: 23:55:02
(UTC+00:00)

NOSS 3-1 (A) - Pass Details

Date: 19 May 2025
Orbit: 667 x 1541 km, 63.4° (Epoch: 12 June)

Event Time Altitude Azimuth Distance (km) Brightness Sun altitude
Exits shadow 20:49:58 10° 178° (S) 2,176 4.8 -11.2°
Maximum altitude 20:54:14 31° 117° (ESE) 1,355 3.8 -11.5°
Drops below altitude 10° 20:59:15 10° 57° (ENE) 2,561 5.7 -11.9°
Sets 21:02:15 0° 48° (NE) 3,651 6.6 -12.2°
